Regional Weather Roundup
Issued by NWS Bismarck, ND

Home | Current Version | Previous Version | Text Only | Print | Product List | Glossary On
Versions: 1 2 3 4 5 6 7 8 9 10 11 12 13 14 15 16 17 18 19 20 21 22 23 24 25 26 27 28 29 30 31 32 33 34 35 36 37 38 39 40 41 42 43 44 45 46 47 48 49 50
000
ASUS43 KBIS 280510
RWRBIS

NWR BROADCAST TEXT
NATIONAL WEATHER SERVICE BISMARCK ND
1200 AM CDT SUN AUG 28 2016

NOTE: "FAIR" INDICATES FEW OR NO CLOUDS BELOW 12,000 FEET WITH NO
SIGNIFICANT WEATHER AND/OR OBSTRUCTIONS TO VISIBILITY.


CITY           SKY/WX    TMP DP  RH WIND       PRES   REMARKS
WILLISTON      CLOUDY    70  46  42 SE6       29.81S
MINOT          CLEAR     60  48  64 SE6       29.88S
MINOT AFB      CLEAR     58  48  68 SE8       29.87R
BISMARCK       CLEAR     61  52  72 E8        29.92S
DICKINSON      CLEAR     61  47  59 S13       29.87S
GARRISON         N/A     60  54  80 SE7       29.89S
HETTINGER ARPT CLEAR     62  51  67 SE5       29.92S
JAMESTOWN      CLEAR     61  59  93 SE6       29.96R
CARRINGTON     FAIR      61  57  88 SE9       29.97S
HAZEN          FAIR      66  48  52 S12       29.90S
LINTON         FAIR      64  54  68 SE8G17    29.95S
MANDAN         FAIR      64  50  59 SE8       29.93S
OAKES            N/A    N/A N/A N/A MISG        N/A
RUGBY          FAIR      59  54  82 E8        29.91F
STANLEY        FAIR      59  48  67 SE6       29.89S
WATFORD CITY   FAIR      63  45  51 SE10      29.84S
$$

CITY           SKY/WX    TMP DP  RH WIND       PRES   REMARKS
GRAND FORKS    CLEAR     57  54  89 S7        29.96R
GRAND FORKS AF CLEAR     59  56  87 SW10      29.96R
DEVILS LAKE    CLEAR     62  60  93 SE10      29.95F
FARGO          PTCLDY    64  59  83 SE8       29.98S
CAVALIER       FAIR      57  55  94 S3        29.95S
GRAFTON        FAIR      55  55 100 S3        29.97S
GWINNER        FAIR      63  63 100 SE6       29.98F
LANGDON        FAIR      57  55  94 S9        29.97S
ROLLA          FAIR      48  48 100 S3        29.95S
$$

CITY           SKY/WX    TMP DP  RH WIND       PRES   REMARKS
ABERDEEN       PTCLDY    64  61  90 SE9       29.96S
MOBRIDGE       CLOUDY    67  52  58 SE9       29.90S
BUFFALO          N/A     66  53  63 SE10      29.85S
RAPID CITY     CLOUDY    64  51  62 S5        29.93S
GLASGOW        CLOUDY    66  41  40 SE8       29.73S
SIDNEY         PTCLDY    64  51  62 SE3       29.80S
WOLF POINT     PTCLDY    63  43  48 E5        29.76S
GLENDIVE       CLOUDY    68  46  45 SE9       29.82S
MILES CITY     CLEAR     68  36  30 S8        29.82R
BAKER          CLEAR     65  49  56 S13       29.88S
$$

CITY           SKY/WX    TMP DP  RH WIND       PRES   REMARKS
BILLINGS       MOCLDY    73  36  25 S6        29.85S
GREAT FALLS    CLOUDY    66  36  32 SW9       29.80R
REGINA         MOCLDY    63  45  51 SE16G22   29.75R
ESTEVAN        CLEAR     59  46  63 E9        29.83S
$$




USA.gov is the U.S. government's official web portal to all federal, state and local government web resources and services.